Tracking 35030 objects as of 9-Aug-2026
HD Live streaming from Space Station
objects crossing your sky now

BB 2

Track BB 2 now!
10-day predictions


NORAD ID: 56170
Int'l Code: 2023-050J
Launch date: April 2, 2023
Source: United States (US)
Launch site: AIR FORCE WESTERN TEST RANGE (AFWTR)
Your satellite tracking list
Your tracking list is empty




NASA's NSSDC Master Catalog

Two Line Element Set (TLE):
1 56170U 23050J   26220.96437635  .00000168  00000-0  60933-4 0  9994
2 56170  81.0020  23.9905 0008956 133.3677 226.8251 14.29358369169213
Source of the keplerian elements: AFSPC